Current weather by "City, St" or "zip code"  
 

Current Conditions: Houston, Houston Hobby Airport, TX

Partly Cloudy


78.0 F

Last Updated on Apr 13 2024, 5:53 pm CDT
Humidity: 48%
Wind Speed: S 13.8 G 24.2 mph
Barometer 30.14 in
Dewpoint: 57.0 F
Visibility: 10.00 mi
Precip: --
Heat Index: NA
Wind Chill: NA
Current conditions at:

Houston, Houston Hobby Airport, TX (KHOU)

Lat: 29.6375 Lon: 95.2825

Local Radar Image active severe weather and emergency alerts image image weather storm and storm spotter reports image weather observation monitoring service image
Local
Radar
Active
Alerts
Storm Reports Obs
Monitoring

Sign-up For Email & Text Message Weather Alert Notification Services



Advertise Here

Observation History for Houston, Houston Hobby Airport, TX


Time Wind
(mph)
Vis
(mi)
Weather Precip (in) Temperature (F) Relative
Humidity
Wind
Chill
(F)
Heat
Index
(F)
Pressure
Air Dwpt altimeter
(in)
sea level
(mb)
Rmks
5:53 pm CDT S 13.8 G 24.2 10.00 Partly Cloudy -- 78.0 57.0 48% NA NA 30.14 1021.1
11:53 am CDT SE 11.5 10.00 Mostly Cloudy -- 79.0 53.1 41% NA NA 30.26 1025.2
9:53 am CDT SE 10.4 10.00 Mostly Cloudy -- 73.0 59.0 62% NA NA 30.25 1024.7
7:53 am CDT SE 6.9 10.00 Mostly Cloudy -- 62.0 57.0 84% 62 NA 30.24 1024.4
4:53 am CDT N 0.0 10.00 Mostly Cloudy -- 60.0 54.0 80% NA NA 30.21 1023.5
2:53 am CDT S 5.8 10.00 A Few Clouds -- 61.0 54.0 78% 61 NA 30.23 1024.2
1:53 am CDT S 3.5 10.00 A Few Clouds -- 61.0 54.0 78% NA NA 30.26 1025.0
11:53 pm CDT S 4.6 10.00 Partly Cloudy -- 64.0 54.0 70% NA NA 30.28 1025.8
10:53 pm CDT S 5.8 10.00 Partly Cloudy -- 64.0 53.1 68% NA NA 30.28 1025.8
8:53 pm CDT S 8.1 10.00 Partly Cloudy -- 68.0 46.9 47% NA NA 30.26 1025.0
7:53 pm CDT S 11.5 10.00 Partly Cloudy -- 72.0 42.1 34% NA NA 30.23 1024.1

Regional Weather Observation


Houston Executive Airport, TX (KTME)

NULL
77.0 F

Houston, Houston Hobby Airport, TX (KHOU)

Partly Cloudy
78.0 F

Houston, Sugar Land Municipal / Hull Field Airport, TX (KSGR)

Fair
77.0 F

La Porte Municipal Airport, TX (KT41)

Fair
75.0 F

Houston / Ellington, TX (KEFD)

Fair
75.0 F

Houston Southwest Airport, TX (KAXH)

Fair
75.0 F

Advertise Here


Advertise Here